Location: Zlin
(49.2330°N, 17.6670°E)
Time: 03:00:40
(UTC+02:00)

ISS - Visible Passes

Search period start: 27 May 2018 00:00
Search period end: 06 June 2018 00:00
Orbit: 402 x 407 km, 51.6° (Epoch: 27 May)

Date Brightness Start Highest point End Pass type
(mag) Time Alt. Az. Time Alt. Az. Time Alt. Az.
27 May -4.0 00:23:04 10° WNW 00:26:20 89° NW 00:26:26 85° ESE visible
27 May -3.1 21:54:10 10° W 21:57:25 56° N 22:00:39 10° ENE visible
27 May -3.6 23:30:51 10° WNW 23:34:07 69° NNE 23:35:44 27° E visible
28 May -1.6 01:07:28 10° W 01:08:21 16° W 01:08:21 16° W visible
28 May -3.3 22:38:37 10° WNW 22:41:52 58° N 22:45:04 10° E visible
29 May -3.2 00:15:09 10° WNW 00:17:42 44° WSW 00:17:42 44° WSW visible
29 May -3.0 21:46:20 10° WNW 21:49:33 53° N 21:52:46 10° E visible
29 May -4.0 23:22:54 10° WNW 23:26:11 81° SSW 23:27:06 44° ESE visible
30 May -3.7 22:30:39 10° WNW 22:33:56 75° NNE 22:36:31 15° E visible
31 May -2.2 00:07:20 10° W 00:09:08 23° WSW 00:09:08 23° WSW visible
31 May -3.3 21:38:23 10° WNW 21:41:39 61° N 21:44:53 10° E visible
31 May -3.5 23:14:57 10° WNW 23:18:06 46° SSW 23:18:35 42° S visible
01 Jun -3.9 22:22:38 10° WNW 22:25:55 71° SSW 22:28:04 19° ESE visible
01 Jun -1.4 23:59:53 10° W 00:00:41 13° WSW 00:00:41 13° WSW visible
02 Jun -3.8 21:30:21 10° WNW 21:33:38 83° NNE 21:36:55 10° ESE visible
02 Jun -2.5 23:07:07 10° W 23:09:52 25° SW 23:10:11 25° SSW visible
03 Jun -3.1 22:14:37 10° WNW 22:17:43 39° SSW 22:19:42 19° SSE visible
04 Jun -1.6 22:59:49 10° WSW 23:01:27 13° SW 23:01:52 13° SW visible
05 Jun -2.1 22:06:48 10° W 22:09:22 21° SW 22:11:26 13° S visible
